| time (UTC) | temp F | wind direction | speed MPH | gust MPH | rain 1hr in | rain 24hr in | rain mn in | humidity % | barometer mb |
| 20260505163142 | 52 | 52 | 2.0 | 10.0 | 0.00 | 0.00 | 0.00 | 81 | 1009.5 |
| 20260505161643 | 52 | 59 | 2.0 | 13.0 | 0.00 | 0.00 | 0.00 | 81 | 1009.5 |
| 20260505160841 | 52 | 28 | 5.0 | 10.0 | 0.00 | 0.00 | 0.00 | 80 | 1009.7 |
| 20260505153116 | 52 | 14 | 2.0 | 9.0 | 0.00 | 0.00 | 0.00 | 81 | 1009.6 |
| 20260505152311 | 52 | 58 | 4.0 | 9.0 | 0.00 | 0.00 | 0.00 | 81 | 1009.7 |
| 20260505150129 | 52 | 39 | 6.0 | 11.0 | 0.00 | 0.00 | 0.00 | 81 | 1009.8 |
| 20260505130115 | 51 | 41 | 5.0 | 11.0 | 0.00 | 0.00 | 0.00 | 79 | 1010.6 |
| 20260505124613 | 52 | 10 | 2.0 | 9.0 | 0.00 | 0.00 | 0.00 | 79 | 1010.6 |
| 20260505123112 | 51 | 38 | 5.0 | 10.0 | 0.00 | 0.00 | 0.00 | 79 | 1010.6 |
| 20260505121612 | 51 | 17 | 6.0 | 10.0 | 0.00 | 0.00 | 0.00 | 79 | 1010.7 |
| 20260505120116 | 51 | 18 | 3.0 | 11.0 | 0.00 | 0.00 | 0.00 | 79 | 1010.8 |
| 20260505120005 | 51 | 18 | 2.0 | 9.0 | 0.00 | 0.00 | 0.00 | 79 | 1010.7 |
| 20260505113759 | 51 | 30 | 2.0 | 9.0 | 0.00 | 0.00 | 0.00 | 79 | 1010.9 |
| 20260505111611 | 51 | 0 | 2.0 | 10.0 | 0.00 | 0.00 | 0.00 | 79 | 1010.9 |
| 20260505101612 | 51 | 55 | 2.0 | 10.0 | 0.00 | 0.00 | 0.00 | 79 | 1011.0 |
| 20260505100109 | 51 | 34 | 1.0 | 10.0 | 0.00 | 0.00 | 0.00 | 79 | 1011.1 |
| 20260505095958 | 51 | 14 | 2.0 | 13.0 | 0.00 | 0.00 | 0.00 | 79 | 1011.1 |
| 20260505094517 | 51 | 48 | 6.0 | 12.0 | 0.00 | 0.00 | 0.00 | 79 | 1011.2 |
| 20260505091610 | 51 | 35 | 2.0 | 10.0 | 0.00 | 0.00 | 0.00 | 79 | 1011.2 |
| 20260505090108 | 51 | 45 | 3.0 | 10.0 | 0.00 | 0.00 | 0.00 | 79 | 1011.2 |
| 20260505084607 | 51 | 17 | 3.0 | 10.0 | 0.00 | 0.00 | 0.00 | 79 | 1011.1 |
| 20260505083107 | 51 | 27 | 2.0 | 12.0 | 0.00 | 0.00 | 0.00 | 79 | 1011.3 |
| 20260505081607 | 51 | 37 | 5.0 | 9.0 | 0.00 | 0.00 | 0.00 | 79 | 1011.2 |
| 20260505080107 | 51 | 30 | 2.0 | 10.0 | 0.00 | 0.00 | 0.00 | 79 | 1011.1 |
| 20260505075305 | 51 | 25 | 2.0 | 9.0 | 0.00 | 0.00 | 0.00 | 79 | 1011.1 |
| 20260505073106 | 51 | 0 | 1.0 | 11.0 | 0.00 | 0.00 | 0.00 | 79 | 1011.3 |
| 20260505071606 | 51 | 20 | 1.0 | 5.0 | 0.00 | 0.00 | 0.00 | 79 | 1011.3 |
| 20260505070120 | 51 | 14 | 3.0 | 9.0 | 0.00 | 0.00 | 0.00 | 79 | 1011.1 |
| 20260505065307 | 51 | 20 | 4.0 | 11.0 | 0.00 | 0.00 | 0.00 | 79 | 1011.2 |
| 20260505063104 | 51 | 27 | 6.0 | 11.0 | 0.00 | 0.00 | 0.00 | 79 | 1011.3 |
| 20260505061604 | 51 | 20 | 2.0 | 7.0 | 0.00 | 0.00 | 0.00 | 78 | 1011.4 |
| 20260505060114 | 52 | 65 | 0.0 | 11.0 | 0.00 | 0.00 | 0.00 | 78 | 1011.4 |
| 20260505054604 | 52 | 18 | 0.0 | 7.0 | 0.00 | 0.00 | 0.00 | 78 | 1011.4 |
| 20260505053800 | 52 | 6 | 0.0 | 6.0 | 0.00 | 0.00 | 0.00 | 79 | 1011.3 |
| 20260505051603 | 52 | 18 | 0.0 | 7.0 | 0.00 | 0.00 | 0.00 | 78 | 1011.2 |
| 20260505050109 | 52 | 37 | 0.0 | 5.0 | 0.00 | 0.00 | 0.00 | 78 | 1011.2 |
| 20260505041603 | 53 | 23 | 1.0 | 9.0 | 0.00 | 0.00 | 0.00 | 78 | 1011.2 |
| 20260505040800 | 53 | 0 | 1.0 | 2.0 | 0.00 | 0.00 | 0.00 | 78 | 1011.3 |
| 20260505034601 | 53 | 11 | 0.0 | 1.0 | 0.00 | 0.00 | 0.00 | 78 | 1011.4 |
| 20260505033757 | 53 | 14 | 0.0 | 6.0 | 0.00 | 0.00 | 0.00 | 78 | 1011.4 |
| 20260505031601 | 53 | 16 | 1.0 | 10.0 | 0.00 | 0.00 | 0.00 | 78 | 1011.4 |
| 20260505030112 | 53 | 8 | 4.0 | 10.0 | 0.00 | 0.00 | 0.00 | 78 | 1011.4 |
| 20260505024600 | 54 | 345 | 3.0 | 9.0 | 0.00 | 0.00 | 0.00 | 78 | 1011.4 |
| 20260505021600 | 54 | 10 | 0.0 | 9.0 | 0.00 | 0.00 | 0.00 | 78 | 1011.5 |
| 20260505020116 | 55 | 0 | 0.0 | 9.0 | 0.00 | 0.00 | 0.00 | 78 | 1011.5 |
| 20260505014604 | 55 | 343 | 0.0 | 5.0 | 0.00 | 0.00 | 0.00 | 78 | 1011.5 |
| 20260505013110 | 55 | 358 | 1.0 | 7.0 | 0.00 | 0.00 | 0.00 | 78 | 1011.6 |
| 20260505012304 | 55 | 10 | 1.0 | 5.0 | 0.00 | 0.00 | 0.00 | 78 | 1011.5 |
| 20260505004540 | 0 | 0.0 | 0.0 | 0.00 | 0.00 | 0.00 | 1011.7 | ||
| 20260505003027 | 0 | 0.0 | 0.0 | 0.00 | 0.00 | 0.00 | 1011.7 | ||
| 20260505002149 | 0 | 0.0 | 0.0 | 0.00 | 0.00 | 0.00 | 1011.8 | ||
| 20260504235944 | 56 | 103 | 0.0 | 0.0 | 0.00 | 0.00 | 0.00 | 78 | 1012.0 |
| 20260504234425 | 56 | 103 | 0.0 | 0.0 | 0.00 | 0.00 | 0.00 | 78 | 1012.1 |
| 20260504232907 | 56 | 124 | 0.0 | 0.0 | 0.00 | 0.00 | 0.00 | 78 | 1012.0 |
| 20260504232057 | 56 | 124 | 0.0 | 0.0 | 0.00 | 0.00 | 0.00 | 78 | 1012.1 |
| 20260504225835 | 56 | 124 | 0.0 | 0.0 | 0.00 | 0.00 | 0.00 | 78 | 1012.2 |
| 20260504224327 | 57 | 123 | 0.0 | 0.0 | 0.00 | 0.00 | 0.00 | 78 | 1012.3 |
| 20260504222805 | 57 | 123 | 0.0 | 0.0 | 0.00 | 0.00 | 0.00 | 78 | 1012.4 |
| 20260504221305 | 57 | 123 | 0.0 | 0.0 | 0.00 | 0.00 | 0.00 | 78 | 1012.6 |
| 20260504215804 | 57 | 128 | 0.0 | 0.0 | 0.00 | 0.00 | 0.00 | 78 | 1012.7 |
| 20260504214955 | 57 | 128 | 0.0 | 0.0 | 0.00 | 0.00 | 0.00 | 79 | 1012.8 |
| 20260504212804 | 58 | 128 | 0.0 | 1.0 | 0.00 | 0.00 | 0.00 | 79 | 1012.9 |
| 20260504212009 | 58 | 128 | 0.0 | 0.0 | 0.00 | 0.00 | 0.00 | 79 | 1013.1 |
| 20260504205804 | 58 | 128 | 0.0 | 0.0 | 0.00 | 0.00 | 0.00 | 79 | 1013.0 |
| 20260504204955 | 58 | 128 | 0.0 | 0.0 | 0.00 | 0.00 | 0.00 | 80 | 1013.0 |
| 20260504202803 | 58 | 128 | 0.0 | 0.0 | 0.00 | 0.00 | 0.00 | 80 | 1013.0 |
| 20260504201308 | 58 | 128 | 0.0 | 0.0 | 0.00 | 0.00 | 0.00 | 80 | 1013.0 |
| 20260504195805 | 58 | 128 | 0.0 | 0.0 | 0.00 | 0.00 | 0.00 | 80 | 1013.0 |
| 20260504193500 | 58 | 128 | 0.0 | 0.0 | 0.00 | 0.00 | 0.00 | 81 | 1012.9 |
| 20260504191950 | 58 | 128 | 0.0 | 0.0 | 0.00 | 0.00 | 0.00 | 82 | 1012.7 |
| 20260504185800 | 58 | 128 | 0.0 | 1.0 | 0.00 | 0.00 | 0.00 | 82 | 1012.7 |
| 20260504184300 | 58 | 127 | 0.0 | 1.0 | 0.00 | 0.00 | 0.00 | 82 | 1012.6 |
| 20260504182800 | 58 | 128 | 0.0 | 3.0 | 0.00 | 0.00 | 0.00 | 83 | 1012.7 |
| 20260504181959 | 59 | 113 | 1.0 | 2.0 | 0.00 | 0.00 | 0.00 | 84 | 1012.8 |
| 20260504175758 | 0 | 0.0 | 0.0 | 0.00 | 0.00 | 0.00 | 1012.9 | ||
| 20260504174239 | 0 | 0.0 | 0.0 | 0.00 | 0.00 | 0.00 | 1012.9 | ||
| 20260504172721 | 0 | 0.0 | 0.0 | 0.00 | 0.00 | 0.00 | 1012.7 | ||
| 20260504171204 | 63 | 13 | 1.0 | 0.0 | 0.00 | 0.00 | 0.00 | 84 | 1012.6 |
| 20260504171051 | 63 | 11 | 0.0 | 4.0 | 0.00 | 0.00 | 0.00 | 84 | 1012.5 |